Tracking 19562 objects as of 25-Mar-2019
HD Live streaming from Space Station
objects crossing your sky now

AMOS 5I (ASIASAT 2)

Track AMOS 5I (ASIASAT 2) now!
AMOS 5I (ASIASAT 2) is classified as:


NORAD ID: 23723
Int'l Code: 1995-064A
Perigee: 36,005.5 km
Apogee: 36,127.6 km
Inclination: 6.3 °
Period: 1,450.1 minutes
Semi major axis: 42437 km
RCS: 19.9526 m2 (large)
Launch date: November 28, 1995
Source: Israel (ISRA)
Launch site: Xichang Space Center, China (XSC)

TV communications to 53 countries; internet, multimedia, 24 C-band, 9 Ku-band transponders.
aabbcc
Your satellite tracking list
Your tracking list is empty




NASA's NSSDC Master Catalog

Two Line Element Set (TLE):
1 23723U 95064A   19084.14020719 -.00000017  00000-0  00000+0 0  9995
2 23723   6.2583  58.6802 0014389 268.9369 105.1165  0.99306477 85186
Source of the keplerian elements: AFSPC